Location: Gorze? G�rny
(49.8500°N, 19.5000°E)
Time: 11:53:24
(UTC+00:00)

Cosmos 1459 Rocket - Pass Details

Date: 13 May 2021
Orbit: 936 x 1000 km, 83.0° (Epoch: 22 June)

Event Time Altitude Azimuth Distance (km) Brightness Sun altitude
Rises 23:36:36 0° 352° (N) 3,706 8.2 -20.3°
Reaches altitude 10° 23:39:12 10° 356° (N) 2,745 7.4 -20.2°
Maximum altitude 23:45:25 61° 77° (ENE) 1,096 4.4 -19.9°
Enters shadow 23:49:35 21° 151° (SSE) 2,007 5.3 -19.7°
